Overview Statistics Trail Chart Weather Telemetry Raw packets
 

This is the latest recevied weather packets stored in our database for station/object K9ZOG. If no packets are shown the sender has not sent any weather packets the latest 10 day(s).

<< 2 3 4 5 6 7 8 >>
Time Temp. Humidity Pressure Rain* Wind** Luminosity Snow
1788548185 23.33° C 89% 1014 hPa 0 mm - 250 W/m² -
1788547907 23.33° C 90% 1014 hPa 0 mm - 240 W/m² -
1788547586 23.33° C 90% 1013.8 hPa 0 mm - 254 W/m² -
1788547285 23.33° C 91% 1013.8 hPa 0 mm - 277 W/m² -
1788546985 22.78° C 91% 1013.7 hPa 0 mm - 335 W/m² -
1788546686 22.78° C 92% 1013.8 hPa 0 mm - 395 W/m² -
1788546385 22.78° C 94% 1014 hPa 0 mm - 375 W/m² -
1788546085 22.78° C 95% 1014.4 hPa 0 mm - 312 W/m² -
1788545786 22.78° C 96% 1015.1 hPa 0 mm - 259 W/m² -
1788545486 22.22° C 96% 1015.3 hPa 0 mm - 240 W/m² -
1788545186 22.22° C 96% 1015.1 hPa 0 mm - 206 W/m² -
1788544887 22.22° C 96% 1014.9 hPa 0 mm - 170 W/m² -
1788544585 22.22° C 97% 1015.6 hPa 0 mm - 167 W/m² -
1788544287 22.22° C 97% 1015.5 hPa 0 mm - 176 W/m² -
1788543987 22.22° C 98% 1015.8 hPa 0 mm - 189 W/m² -
1788543686 22.22° C 98% 1016 hPa 0 mm - 192 W/m² -
1788543390 21.67° C 98% 1016.1 hPa 0.25 mm - 198 W/m² -
1788543085 21.67° C 98% 1016.2 hPa 0.25 mm - 213 W/m² -
1788542786 21.67° C 98% 1016.2 hPa 0.25 mm - 211 W/m² -
1788542485 21.67° C 98% 1016.3 hPa 0.51 mm - 179 W/m² -
1788542186 21.67° C 99% 1016.6 hPa 0.51 mm - 172 W/m² -
1788541887 21.67° C 99% 1016.8 hPa 0.51 mm - 201 W/m² -
1788541585 21.11° C 99% 1016.7 hPa 0.51 mm - 230 W/m² -
1788541287 21.11° C 99% 1016.7 hPa 0.76 mm - 230 W/m² -
1788540986 20.56° C 99% 1017.2 hPa 0.76 mm - 182 W/m² -

* Rain latest hour (hover to see other rain measurements)
** Current wind speed in m/s (hover to see current wind gust speed)